Lakeville, MN

7:19 AM CDT on September 29, 2016 (GMT -0500)
Airlake

Weather History for KLVN - November, 2012

Change the Weather History Date:

Saturday, November 17, 2012

  Actual Average Record
Temperature  
Mean Temperature 40 °F -  
Max Temperature 53 °F 41 °F 71 °F (1953)
Min Temperature 26 °F 25 °F -5 °F (1959)
Degree Days  
Heating Degree Days 26    
Moisture  
Dew Point 34 °F    
Average Humidity 73    
Maximum Humidity 93    
Minimum Humidity 54    
Precipitation  
Precipitation 0.00 in - - ()
Sea Level Pressure  
Sea Level Pressure 30.26 in    
Wind  
Wind Speed 6 mph (SSE)    
Max Wind Speed 15 mph    
Max Gust Speed 23 mph    
Visibility 9 miles    
Events      
Averages and records for this station are not official NWS values.
T = Trace of Precipitation, MM = Missing Value Source: NWS Daily Summary

Daily Weather History Graph

Daily Weather History Graph

Search for Another Location

Airport or City:

Trip Planner

Search our weather history database for the weather conditions in past years. The results will help you decide how hot, cold, wet, or windy it might be!

Date:

Astronomy

Nov. 17, 2012 Rise Set
Actual Time 7:12 AM CST 4:42 PM CST
Civil Twilight 6:41 AM CST 5:14 PM CST
Nautical Twilight 6:05 AM CST 5:49 PM CST
Astronomical Twilight 5:31 AM CST 6:24 PM CST
Moon 10:58 AM CST (11/17) 8:54 PM CST (11/17)
Length of Visible Light 10h 33m
Length of Day
9h 29m
Waxing Crescent, 20% of the Moon is Illuminated
Nov 17
Waxing Crescent
Nov 20
First Quarter
Nov 28
Full
Dec 6
Last Quarter
Dec 13
New

Hourly Weather History & Observations

Time (CST) Temp. Windchill Dew Point Humidity Pressure Visibility Wind Dir Wind Speed Gust Speed Precip Events Conditions
12:14 AM 30.2 °F - 26.6 °F 86% 30.32 in 10.0 mi Calm Calm - N/A   Clear
12:34 AM 30.2 °F - 28.4 °F 93% 30.32 in 10.0 mi Calm Calm - N/A   Clear
12:54 AM 30.2 °F - 26.6 °F 86% 30.32 in 10.0 mi Calm Calm - N/A   Clear
1:14 AM 30.2 °F - 28.4 °F 93% 30.32 in 10.0 mi Calm Calm - N/A   Clear
1:34 AM 30.2 °F - 28.4 °F 93% 30.32 in 10.0 mi Calm Calm - N/A   Clear
1:54 AM 28.4 °F - 26.6 °F 93% 30.32 in 7.0 mi Calm Calm - N/A   Clear
2:14 AM 26.6 °F - 24.8 °F 93% 30.32 in 7.0 mi Calm Calm - N/A   Clear
2:33 AM 32.0 °F 26.4 °F 30.2 °F 93% 30.32 in 7.0 mi SSE 5.8 mph - N/A   Clear
2:54 AM 32.0 °F 28.7 °F 28.4 °F 87% 30.31 in 7.0 mi SSE 3.5 mph - N/A   Clear
3:14 AM 32.0 °F 27.5 °F 28.4 °F 87% 30.31 in 7.0 mi SSE 4.6 mph - N/A   Clear
3:33 AM 33.8 °F 28.6 °F 28.4 °F 81% 30.30 in 7.0 mi SSE 5.8 mph - N/A   Clear
3:54 AM 33.8 °F 29.6 °F 28.4 °F 81% 30.29 in 7.0 mi South 4.6 mph - N/A   Clear
4:14 AM 32.0 °F 25.6 °F 28.4 °F 87% 30.29 in 7.0 mi SSE 6.9 mph - N/A   Clear
4:34 AM 33.8 °F 28.6 °F 30.2 °F 87% 30.29 in 7.0 mi SSE 5.8 mph - N/A   Clear
4:54 AM 33.8 °F 27.7 °F 30.2 °F 87% 30.29 in 7.0 mi SSE 6.9 mph - N/A   Clear
5:13 AM 33.8 °F 28.6 °F 30.2 °F 87% 30.29 in 7.0 mi SE 5.8 mph - N/A   Clear
5:34 AM 33.8 °F 28.6 °F 28.4 °F 81% 30.28 in 7.0 mi SE 5.8 mph - N/A   Clear
5:54 AM 33.8 °F 28.6 °F 30.2 °F 87% 30.28 in 10.0 mi SE 5.8 mph - N/A   Clear
6:13 AM 33.8 °F 28.6 °F 30.2 °F 87% 30.28 in 10.0 mi SSE 5.8 mph - N/A   Clear
6:34 AM 33.8 °F 30.8 °F 30.2 °F 87% 30.28 in 7.0 mi SE 3.5 mph - N/A   Clear
6:54 AM 33.8 °F 30.8 °F 30.2 °F 87% 30.28 in 7.0 mi SSE 3.5 mph - N/A   Clear
7:14 AM 33.8 °F 30.8 °F 30.2 °F 87% 30.28 in 7.0 mi ESE 3.5 mph - N/A   Clear
7:33 AM 33.8 °F - 30.2 °F 87% 30.28 in 7.0 mi Calm Calm - N/A   Clear
7:54 AM 33.8 °F - 30.2 °F 87% 30.28 in 7.0 mi Calm Calm - N/A   Clear
8:14 AM 33.8 °F 30.8 °F 30.2 °F 87% 30.28 in 7.0 mi ESE 3.5 mph - N/A   Clear
8:33 AM 37.4 °F - 33.8 °F 87% 30.29 in 7.0 mi Calm Calm - N/A   Clear
8:54 AM 41.0 °F 35.8 °F 33.8 °F 76% 30.29 in 10.0 mi South 8.1 mph - N/A   Clear
9:14 AM 42.8 °F 38.6 °F 35.6 °F 76% 30.29 in 10.0 mi South 6.9 mph - N/A   Clear
9:33 AM 44.6 °F 38.1 °F 35.6 °F 71% 30.29 in 10.0 mi South 13.8 mph 20.7 mph N/A   Clear
9:54 AM 44.6 °F 38.1 °F 35.6 °F 71% 30.29 in 10.0 mi South 13.8 mph 19.6 mph N/A   Clear
10:13 AM 46.4 °F 40.7 °F 35.6 °F 66% 30.29 in 10.0 mi South 12.7 mph 19.6 mph N/A   Clear
10:34 AM 48.2 °F - 35.6 °F 62% 30.29 in 10.0 mi South 12.7 mph 16.1 mph N/A   Clear
10:54 AM 46.4 °F 40.1 °F 35.6 °F 66% 30.29 in 10.0 mi South 15.0 mph 23.0 mph N/A   Clear
11:13 AM 48.2 °F - 35.6 °F 62% 30.28 in 10.0 mi South 12.7 mph 19.6 mph N/A   Clear
11:34 AM 48.2 °F - 35.6 °F 62% 30.27 in 10.0 mi South 11.5 mph 19.6 mph N/A   Clear
11:54 AM 51.8 °F - 37.4 °F 58% 30.26 in 10.0 mi South 11.5 mph 17.3 mph N/A   Clear
12:13 PM 51.8 °F - 37.4 °F 58% 30.25 in 10.0 mi South 12.7 mph 18.4 mph N/A   Clear
12:34 PM 50.0 °F - 37.4 °F 62% 30.25 in 10.0 mi South 10.4 mph 18.4 mph N/A   Clear
12:54 PM 50.0 °F - 37.4 °F 62% 30.24 in 10.0 mi South 11.5 mph 17.3 mph N/A   Clear
1:13 PM 51.8 °F - 37.4 °F 58% 30.24 in 10.0 mi South 10.4 mph - N/A   Clear
1:34 PM 51.8 °F - 37.4 °F 58% 30.24 in 10.0 mi South 11.5 mph 18.4 mph N/A   Clear
1:53 PM 51.8 °F - 37.4 °F 58% 30.23 in 10.0 mi SSE 11.5 mph - N/A   Clear
2:14 PM 51.8 °F - 37.4 °F 58% 30.23 in 10.0 mi SSE 9.2 mph - N/A   Clear
2:34 PM 51.8 °F - 37.4 °F 58% 30.23 in 10.0 mi South 9.2 mph - N/A   Clear
2:53 PM 51.8 °F - 37.4 °F 58% 30.22 in 10.0 mi SSE 10.4 mph - N/A   Clear
3:14 PM 53.6 °F - 37.4 °F 54% 30.22 in 10.0 mi SSE 10.4 mph - N/A   Clear
3:34 PM 51.8 °F - 37.4 °F 58% 30.22 in 10.0 mi SSE 8.1 mph - N/A   Clear
3:53 PM 50.0 °F - 37.4 °F 62% 30.22 in 10.0 mi SSE 10.4 mph - N/A   Clear
4:14 PM 48.2 °F - 37.4 °F 66% 30.21 in 10.0 mi SSE 9.2 mph - N/A   Clear
4:34 PM 48.2 °F - 37.4 °F 66% 30.21 in 10.0 mi SSE 6.9 mph - N/A   Clear
4:53 PM 46.4 °F 42.4 °F 37.4 °F 71% 30.22 in 10.0 mi SSE 8.1 mph - N/A   Clear
5:14 PM 48.2 °F - 37.4 °F 66% 30.21 in 10.0 mi SE 8.1 mph - N/A   Mostly Cloudy
5:34 PM 46.4 °F 42.9 °F 37.4 °F 71% 30.21 in 10.0 mi SE 6.9 mph - N/A   Scattered Clouds
5:53 PM 46.4 °F 42.9 °F 37.4 °F 71% 30.21 in 10.0 mi SSE 6.9 mph - N/A   Mostly Cloudy
6:14 PM 46.4 °F 42.4 °F 37.4 °F 71% 30.21 in 10.0 mi SSE 8.1 mph - N/A   Unknown
6:34 PM 46.4 °F 41.9 °F 37.4 °F 71% 30.20 in 10.0 mi SSE 9.2 mph - N/A   Scattered Clouds
6:53 PM 46.4 °F 41.9 °F 37.4 °F 71% 30.20 in 10.0 mi SSE 9.2 mph - N/A   Clear
7:14 PM 46.4 °F 41.1 °F 37.4 °F 71% 30.21 in 10.0 mi SSE 11.5 mph - N/A   Clear
7:33 PM 46.4 °F 41.1 °F 37.4 °F 71% 30.20 in 10.0 mi SSE 11.5 mph - N/A   Scattered Clouds
7:53 PM 48.2 °F - 35.6 °F 62% 30.20 in 10.0 mi SSE 11.5 mph 17.3 mph N/A   Scattered Clouds
8:14 PM 48.2 °F - 35.6 °F 62% 30.20 in 10.0 mi SSE 11.5 mph - N/A   Mostly Cloudy
8:33 PM 48.2 °F - 35.6 °F 62% 30.20 in 10.0 mi SSE 11.5 mph 19.6 mph N/A   Overcast
8:53 PM 48.2 °F - 35.6 °F 62% 30.22 in 10.0 mi South 11.5 mph - N/A   Overcast
9:14 PM 48.2 °F - 35.6 °F 62% 30.22 in 10.0 mi South 12.7 mph 20.7 mph N/A   Overcast
9:33 PM 48.2 °F - 35.6 °F 62% 30.23 in 10.0 mi South 9.2 mph 16.1 mph N/A   Overcast
9:53 PM 48.2 °F - 35.6 °F 62% 30.22 in 10.0 mi SSE 8.1 mph - N/A   Overcast
10:14 PM 46.4 °F 42.4 °F 35.6 °F 66% 30.22 in 10.0 mi SSE 8.1 mph - N/A   Overcast
10:34 PM 46.4 °F 41.5 °F 35.6 °F 66% 30.22 in 10.0 mi South 10.4 mph - N/A   Overcast
10:53 PM 46.4 °F 41.9 °F 35.6 °F 66% 30.21 in 10.0 mi South 9.2 mph - N/A   Overcast
11:14 PM 46.4 °F 41.1 °F 33.8 °F 62% 30.21 in 10.0 mi South 11.5 mph - N/A   Overcast
11:34 PM 46.4 °F 41.5 °F 33.8 °F 62% 30.21 in 10.0 mi SSE 10.4 mph - N/A   Overcast
11:53 PM 46.4 °F 40.4 °F 33.8 °F 62% 30.21 in 10.0 mi SSE 13.8 mph 18.4 mph N/A   Overcast